Tracking 35237 objects as of 5-Sep-2026
HD Live streaming from Space Station
objects crossing your sky now

STARLINK 1060


STARLINK 1060 is no longer on orbit
STARLINK 1060 is classified as:


NORAD ID: 44765
Int'l Code: 2019-074BE
Launch date: November 11, 2019
Source: United States (US)
Launch site: AIR FORCE EASTERN TEST RANGE (AFETR)
Decay date: 2026-02-14
Your satellite tracking list
Your tracking list is empty




NASA's NSSDC Master Catalog

Two Line Element Set (TLE):
1 44765U 19074BE  26045.13841613  .07058494  12386-4  56434-3 0  9997
2 44765  53.0244 238.4194 0005169 305.3063 160.2648 16.39209600345946
Source of the keplerian elements: AFSPC